timestamp,surface_pressure_avg,surface_temp_avg,battery_voltage,lat,long
2020-06-22 00:09:01+00:00,350.838,11.1,13.13,47.84626,-54.09684
2020-06-22 00:19:01+00:00,351.5714,11.1,12.81,47.84626,-54.09684
2020-06-22 00:29:01+00:00,348.2596,11.1,12.81,47.84626,-54.09684
2020-06-22 00:39:01+00:00,348.278,11.1,12.81,47.84626,-54.09684
2020-06-22 00:49:01+00:00,345.3563,11.1,12.81,47.84626,-54.09684
2020-06-22 00:59:01+00:00,340.5846,11.1,12.81,47.84626,-54.09684
2020-06-22 01:09:01+00:00,339.2764,11.0,12.81,47.84626,-54.09684
2020-06-22 01:19:01+00:00,334.6813,11.1,12.73,47.84626,-54.09684
2020-06-22 01:29:01+00:00,327.5463,11.18,12.73,47.84626,-54.09684
2020-06-22 01:39:01+00:00,325.443,11.18,12.73,47.84626,-54.09684
2020-06-22 01:49:01+00:00,322.883,11.0,12.73,47.84626,-54.09684
2020-06-22 01:59:01+00:00,316.783,10.93,12.73,47.84626,-54.09684
2020-06-22 02:09:01+00:00,311.073,10.98,12.73,47.84626,-54.09684
2020-06-22 02:19:01+00:00,310.3963,10.92,12.65,47.84626,-54.09684
2020-06-22 02:29:01+00:00,304.2413,11.0,12.65,47.84626,-54.09684
2020-06-22 02:39:01+00:00,295.598,11.0,12.65,47.84626,-54.09684
2020-06-22 02:49:01+00:00,291.6964,11.0,12.65,47.84626,-54.09684
2020-06-22 02:59:01+00:00,284.2097,11.0,12.65,47.84626,-54.09684
2020-06-22 03:09:01+00:00,275.5231,11.0,12.65,47.84626,-54.09684
2020-06-22 03:19:01+00:00,267.5614,11.0,12.65,47.84626,-54.09684
2020-06-22 03:29:01+00:00,259.7397,11.0,12.65,47.84626,-54.09684
2020-06-22 03:39:01+00:00,246.7881,10.99,12.65,47.84626,-54.09684
2020-06-22 03:49:01+00:00,236.5764,11.0,12.65,47.84626,-54.09684
2020-06-22 03:59:01+00:00,230.6881,11.0,12.65,47.84626,-54.09684
2020-06-22 04:09:01+00:00,226.2997,10.99,12.65,47.84626,-54.09684
2020-06-22 04:19:01+00:00,215.5948,10.92,12.65,47.84626,-54.09684
2020-06-22 04:29:01+00:00,205.1947,10.9,12.65,47.84626,-54.09684
2020-06-22 04:39:01+00:00,198.4831,10.9,12.65,47.84626,-54.09684
2020-06-22 04:49:01+00:00,191.1414,10.9,12.65,47.84626,-54.09684
2020-06-22 04:59:01+00:00,186.1281,10.9,12.65,47.84626,-54.09684
2020-06-22 05:09:01+00:00,181.3582,10.9,12.65,47.84626,-54.09684
2020-06-22 05:19:01+00:00,174.8615,10.96,12.65,47.84626,-54.09684
2020-06-22 05:29:01+00:00,170.2648,11.0,12.65,47.84626,-54.09684
2020-06-22 05:39:01+00:00,168.1115,11.0,12.65,47.84626,-54.09684
2020-06-22 05:49:01+00:00,168.5465,11.0,12.65,47.84626,-54.09684
2020-06-22 05:59:01+00:00,167.7831,11.0,12.65,47.84626,-54.09684
2020-06-22 06:09:01+00:00,165.0965,11.0,12.65,47.84626,-54.09684
2020-06-22 06:19:01+00:00,166.1448,11.0,12.65,47.84626,-54.09684
2020-06-22 06:29:01+00:00,170.6665,11.0,12.65,47.84626,-54.09684
2020-06-22 06:39:01+00:00,173.3231,11.0,12.65,47.84626,-54.09684
2020-06-22 06:49:01+00:00,171.8649,11.0,12.65,47.84626,-54.09684
2020-06-22 06:59:01+00:00,174.5465,11.0,12.65,47.84626,-54.09684
2020-06-22 07:09:01+00:00,183.3131,11.0,12.65,47.84626,-54.09684
2020-06-22 07:19:01+00:00,183.5115,11.0,12.65,47.84626,-54.09684
2020-06-22 07:29:01+00:00,184.4532,11.0,12.65,47.84626,-54.09684
2020-06-22 07:39:01+00:00,192.0432,11.0,12.65,47.84626,-54.09684
2020-06-22 07:49:01+00:00,195.4215,11.0,12.65,47.84626,-54.09684
2020-06-22 07:59:01+00:00,195.0565,10.97,12.65,47.84626,-54.09684
2020-06-22 08:09:01+00:00,197.3848,10.9,12.65,47.84626,-54.09684
2020-06-22 08:19:01+00:00,202.3098,10.9,12.57,47.84626,-54.09684
2020-06-22 08:29:01+00:00,205.1797,10.9,12.57,47.84626,-54.09684
2020-06-22 08:39:01+00:00,208.9948,10.9,12.57,47.84626,-54.09684
2020-06-22 08:49:01+00:00,215.9164,10.9,12.57,47.84626,-54.09684
2020-06-22 08:59:01+00:00,220.4614,10.9,12.57,47.84626,-54.09684
2020-06-22 09:09:01+00:00,224.3214,10.9,12.57,47.84626,-54.09684
2020-06-22 09:19:01+00:00,229.0814,10.9,12.57,47.84626,-54.09684
2020-06-22 09:29:01+00:00,236.1214,10.9,12.57,47.84626,-54.09684
2020-06-22 09:39:01+00:00,241.5097,10.9,12.57,47.84626,-54.09684
2020-06-22 09:49:01+00:00,244.0081,10.9,12.57,47.84626,-54.09684
2020-06-22 09:59:01+00:00,249.0214,10.9,12.57,47.84626,-54.09684
2020-06-22 10:09:01+00:00,257.5231,10.9,12.57,47.84626,-54.09684
2020-06-22 10:19:01+00:00,265.3497,10.9,12.73,47.84626,-54.09684
2020-06-22 10:29:01+00:00,269.9814,10.9,12.73,47.84626,-54.09684
2020-06-22 10:39:01+00:00,277.4631,10.9,12.73,47.84626,-54.09684
2020-06-22 10:49:01+00:00,289.558,10.9,12.73,47.84626,-54.09684
2020-06-22 10:59:01+00:00,296.058,10.9,12.73,47.84626,-54.09684
2020-06-22 11:09:01+00:00,298.968,10.9,12.73,47.84626,-54.09684
2020-06-22 11:19:01+00:00,310.1414,10.9,12.89,47.84626,-54.09684
2020-06-22 11:29:01+00:00,317.7329,10.9,12.89,47.84626,-54.09684
2020-06-22 11:39:01+00:00,314.2447,10.9,12.89,47.84626,-54.09684
2020-06-22 11:49:01+00:00,312.9064,10.9,12.89,47.84626,-54.09684
2020-06-22 11:59:01+00:00,319.1331,10.9,12.89,47.84626,-54.09684
2020-06-22 12:09:01+00:00,319.2213,10.9,12.89,47.84626,-54.09684
2020-06-22 12:19:01+00:00,314.5497,10.92,13.6,47.84626,-54.09684
2020-06-22 12:29:01+00:00,315.8264,10.94,13.6,47.84626,-54.09684
2020-06-22 12:39:01+00:00,319.4897,10.9,13.6,47.84626,-54.09684
2020-06-22 12:49:01+00:00,316.928,10.9,13.6,47.84626,-54.09684
2020-06-22 12:59:01+00:00,314.183,10.9,13.6,47.84626,-54.09684
2020-06-22 13:09:01+00:00,313.1529,10.8,13.6,47.84626,-54.09684
2020-06-22 13:19:01+00:00,311.0964,10.7,14.24,47.84626,-54.09684
2020-06-22 13:29:01+00:00,305.2547,10.7,14.24,47.84626,-54.09684
2020-06-22 13:39:01+00:00,303.1564,10.76,14.24,47.84626,-54.09684
2020-06-22 13:49:01+00:00,300.9613,10.7,14.24,47.84626,-54.09684
2020-06-22 13:59:01+00:00,296.913,10.77,14.24,47.84626,-54.09684
2020-06-22 14:09:01+00:00,294.1997,10.8,14.24,47.84626,-54.09684
2020-06-22 14:19:01+00:00,292.2997,10.8,14.24,47.84626,-54.09684
2020-06-22 14:29:01+00:00,288.6248,10.8,14.24,47.84626,-54.09684
2020-06-22 14:39:01+00:00,283.6097,10.7,14.24,47.84626,-54.09684
2020-06-22 14:49:01+00:00,279.2314,10.63,14.24,47.84626,-54.09684
2020-06-22 14:59:01+00:00,273.0264,10.68,14.24,47.84626,-54.09684
2020-06-22 15:09:01+00:00,264.0231,10.7,14.24,47.84626,-54.09684
2020-06-22 15:19:01+00:00,255.1997,10.75,14.0,47.84626,-54.09684
2020-06-22 15:29:01+00:00,247.6881,10.79,14.0,47.84626,-54.09684
2020-06-22 15:39:01+00:00,240.2414,10.84,14.0,47.84626,-54.09684
2020-06-22 15:49:01+00:00,231.0531,10.9,14.0,47.84626,-54.09684
2020-06-22 15:59:01+00:00,222.5931,10.9,14.0,47.84626,-54.09684
2020-06-22 16:09:01+00:00,215.9948,10.9,14.0,47.84626,-54.09684
2020-06-22 16:19:01+00:00,208.5797,10.94,14.16,47.84626,-54.09684
2020-06-22 16:29:01+00:00,202.1948,11.0,14.16,47.84626,-54.09684
2020-06-22 16:39:01+00:00,196.0281,11.07,14.16,47.84626,-54.09684
2020-06-22 16:49:01+00:00,190.5981,11.1,14.16,47.84626,-54.09684
2020-06-22 16:59:01+00:00,185.5714,11.14,14.16,47.84626,-54.09684
2020-06-22 17:09:01+00:00,182.5181,11.18,14.16,47.84626,-54.09684
2020-06-22 17:19:01+00:00,180.3831,11.19,14.32,47.84626,-54.09684
2020-06-22 17:29:01+00:00,176.5748,11.2,14.32,47.84626,-54.09684
2020-06-22 17:39:01+00:00,172.1414,11.2,14.32,47.84626,-54.09684
2020-06-22 17:49:01+00:00,171.4715,11.2,14.32,47.84626,-54.09684
2020-06-22 17:59:01+00:00,174.8665,11.2,14.32,47.84626,-54.09684
2020-06-22 18:09:01+00:00,171.7965,11.2,14.32,47.84626,-54.09684
2020-06-22 18:19:01+00:00,169.5699,11.2,14.08,47.84626,-54.09684
2020-06-22 18:29:01+00:00,175.7281,11.22,14.08,47.84626,-54.09684
2020-06-22 18:39:01+00:00,177.8998,11.3,14.08,47.84626,-54.09684
2020-06-22 18:49:01+00:00,176.7748,11.32,14.08,47.84626,-54.09684
2020-06-22 18:59:01+00:00,182.0831,11.42,14.08,47.84626,-54.09684
2020-06-22 19:09:01+00:00,189.5765,11.5,14.08,47.84626,-54.09684
2020-06-22 19:19:01+00:00,191.3682,11.5,14.0,47.84626,-54.09684
2020-06-22 19:29:01+00:00,190.3964,11.53,14.0,47.84626,-54.09684
2020-06-22 19:39:01+00:00,198.6681,11.54,14.0,47.84626,-54.09684
2020-06-22 19:49:01+00:00,208.1314,11.57,14.0,47.84626,-54.09684
2020-06-22 19:59:01+00:00,204.9414,11.58,14.0,47.84626,-54.09684
2020-06-22 20:09:01+00:00,207.4814,11.59,14.0,47.84626,-54.09684
2020-06-22 20:19:01+00:00,220.8648,11.59,13.84,47.84626,-54.09684
2020-06-22 20:29:01+00:00,226.7431,11.59,13.84,47.84626,-54.09684
2020-06-22 20:39:01+00:00,226.2597,11.59,13.84,47.84626,-54.09684
2020-06-22 20:49:01+00:00,231.8598,11.59,13.84,47.84626,-54.09684
2020-06-22 20:59:01+00:00,237.9314,11.58,13.84,47.84626,-54.09684
2020-06-22 21:09:01+00:00,237.8498,11.57,13.84,47.84626,-54.09684
2020-06-22 21:19:01+00:00,240.9381,11.56,13.68,47.84626,-54.09684
2020-06-22 21:29:01+00:00,251.3947,11.54,13.68,47.84626,-54.09684
2020-06-22 21:39:01+00:00,256.6581,11.5,13.68,47.84626,-54.09684
2020-06-22 21:49:01+00:00,257.9798,11.5,13.68,47.84626,-54.09684
2020-06-22 21:59:01+00:00,266.2397,11.5,13.68,47.84626,-54.09684
2020-06-22 22:09:01+00:00,276.5281,11.5,13.68,47.84626,-54.09684
2020-06-22 22:19:01+00:00,279.5797,11.5,13.44,47.84626,-54.09684
2020-06-22 22:29:01+00:00,284.5364,11.5,13.44,47.84626,-54.09684
2020-06-22 22:39:01+00:00,298.403,11.5,13.44,47.84626,-54.09684
2020-06-22 22:49:01+00:00,309.3563,11.5,13.44,47.84626,-54.09684
2020-06-22 22:59:01+00:00,310.638,11.5,13.44,47.84626,-54.09684
2020-06-22 23:09:01+00:00,318.6447,11.5,13.44,47.84626,-54.09684
2020-06-22 23:19:01+00:00,330.1413,11.5,13.13,47.84626,-54.09684
2020-06-22 23:29:01+00:00,336.48800000000006,11.5,13.13,47.84626,-54.09684
2020-06-22 23:39:01+00:00,339.2247,11.5,13.13,47.84626,-54.09684
2020-06-22 23:49:01+00:00,346.8479,11.5,13.13,47.84626,-54.09684
2020-06-22 23:59:01+00:00,353.0529,11.5,13.13,47.84626,-54.09684
